Regional Weather Roundup
Issued by NWS

Home | Current Version | Previous Version | Graphics & Text | Print | Product List | Glossary On
Versions: 1 2 3 4 5 6 7 8 9 10 11 12 13 14 15 16 17 18 19 20 21 22 23 24 25 26 27 28 29 30 31 32 33 34 35 36 37 38 39 40 41 42 43 44 45 46 47 48 49 50
000
ASUS45 KSLC 171310
RWRUT

UTAH REGIONAL WEATHER ROUNDUP
NATIONAL WEATHER SERVICE SALT LAKE CITY UT
700 AM MDT WED SEP 17 2014

UTZ001>011-023>025-171400-

NORTHERN UTAH

CITY           SKY/WX    TMP DP  RH WIND       PRES   REMARKS
HILL AFB       PTCLDY    65  41  41 E18       29.99S
LOGAN          CLEAR     50  47  89 N5        29.99R
OGDEN          CLEAR     64  42  44 S9        29.96S
PROVO AIRPORT  CLEAR     54  45  71 CALM      30.03S
SALT LAKE CITY MOCLDY    70  42  36 SE12      29.95R
VERNAL         CLEAR     52  42  69 W5        30.11R
WENDOVER       CLEAR     64  37  36 CALM      29.95R
HEBER CITY     CLEAR     43  39  87 CALM      30.12R
WEST JORDAN    CLEAR     72  39  30 S14       29.98S

$$

UTZ012>022-026-027-171400-

SOUTHERN UTAH

CITY           SKY/WX    TMP DP  RH WIND       PRES   REMARKS
BRYCE CANYON   MOCLDY    47  43  86 W8        30.26R
CEDAR CITY     CLEAR     55  48  77 CALM      30.10S
MILFORD        CLEAR     62  51  67 SW14      30.05R
MOAB/CYNLANDS  CLEAR     63  43  48 SE6       30.03R
PRICE          PTCLDY    59  36  42 NE7       30.12R
ST GEORGE      SUNNY     73  54  49 CALM      29.95R
KANAB            N/A     64  46  52 N5        30.11S

$$

REGIONAL REPORTS     COLORADO/ARIZONA

CITY           SKY/WX    TMP DP  RH WIND       PRES   REMARKS
CRAIG, CO      CLEAR     40  35  83 SW5       30.20R
GRAND JUNCTION PTCLDY    56  42  59 SE12      30.09R
RIFLE          CLEAR     48  41  76 SE3       30.18R
MONTROSE       MOCLDY    54  42  64 SE7       30.18R
CORTEZ         CLEAR     52  48  86 CALM      30.19R
PAGE, AZ       MOCLDY    72  54  53 S3        30.05R
GRAND CANYON   PTCLDY    52  48  86 CALM      30.20R
KINGMAN        PTCLDY    65  59  81 S5        29.98R
FLAGSTAFF      CLOUDY    56  54  93 CALM      30.21S

$$

REGIONAL REPORTS    NEVADA/IDAHO/WYOMING

CITY           SKY/WX    TMP DP  RH WIND       PRES   REMARKS
LAS VEGAS, NV  PTCLDY    80  58  46 CALM      29.84R
ELY            CLEAR     51  38  60 S8        30.13R
ELKO           PTCLDY    52  32  46 NE6       30.02R
POCATELLO, ID  PTCLDY    63  50  62 N10       29.96F
BURLEY         PTCLDY    53  47  79 NW5       29.94R
EVANSTON, WY   PTCLDY    56  36  47 S8        30.18S
ROCK SPRINGS   CLEAR     52  35  52 CALM      30.17S

$$



USA.gov is the U.S. government's official web portal to all federal, state and local government web resources and services.